Weather History for Springfield, MO

Change the Weather History Date:

Tuesday, October 29, 2013

  Actual Average Record
Temperature  
Mean Temperature 60 °F 54 °F  
Max Temperature 65 °F 65 °F 86 °F (1950)
Min Temperature 55 °F 43 °F 21 °F (1952)
Degree Days  
Heating Degree Days 5 12  
Month to date heating degree days 281 228  
Since 1 July heating degree days 295 283  
Cooling Degree Days 0 0  
Month to date cooling degree days 44 27  
Year to date cooling degree days 1417 1386  
Growing Degree Days 8 (Base 50)    
Moisture  
Dew Point 57 °F    
Average Humidity 92    
Maximum Humidity 97    
Minimum Humidity 86    
Precipitation  
Precipitation 2.35 in 0.12 in 2.35 in (2013)
Month to date precipitation 5.99 3.36  
Year to date precipitation 46.32 38.08  
Snow  
Snow 0.00 in - - ()
Month to date snowfall 0.0  
Since 1 July snowfall 0.0  
Since 1 September snowfall 0.0  
Snow Depth 0.00 in    
Sea Level Pressure  
Sea Level Pressure 30.07 in    
Wind  
Wind Speed 13 mph (SE)    
Max Wind Speed 23 mph    
Max Gust Speed 29 mph    
Visibility 6 miles    
Events Rain , Thunderstorm    
T = Trace of Precipitation, MM = Missing Value Source: NWS Daily Summary

Daily Weather History Graph

Daily Weather History Graph

Search for Another Location

Airport:

Trip Planner

Search our weather history database for the weather conditions in past years. The results will help you decide how hot, cold, wet, or windy it might be!

Date:

Astronomy

Oct. 29, 2013 Rise Set
Actual Time 7:35 AM CDT 6:18 PM CDT
Civil Twilight 7:08 AM CDT 6:45 PM CDT
Nautical Twilight 6:37 AM CDT 7:16 PM CDT
Astronomical Twilight 6:07 AM CDT 7:46 PM CDT
Moon 2:32 AM CDT 3:27 PM CDT
Length of Visible Light 11h 37m
Length of Day
10h 43m
Waning Crescent, 25% of the Moon is Illuminated
Oct 29
Waning Crescent
Nov 3
New
Nov 9
First Quarter
Nov 17
Full
Nov 25
Last Quarter

Hourly Weather History & Observations

Time (CDT) Temp. Dew Point Humidity Pressure Visibility Wind Dir Wind Speed Gust Speed Precip Events Conditions
12:52 AM 55.0 °F 51.1 °F 86% 30.13 in 10.0 mi SSE 11.5 mph - N/A   Clear
1:52 AM 55.0 °F 52.0 °F 89% 30.12 in 10.0 mi SSE 11.5 mph - N/A   Clear
2:52 AM 55.0 °F 53.1 °F 93% 30.12 in 7.0 mi SSE 16.1 mph - 0.01 in Rain Light Rain
3:52 AM 55.9 °F 54.0 °F 93% 30.11 in 5.0 mi SSE 13.8 mph - 0.14 in Rain Rain
4:52 AM 55.9 °F 54.0 °F 93% 30.07 in 6.0 mi SSE 18.4 mph - 0.10 in Rain Light Rain
5:43 AM 57.0 °F 55.0 °F 93% 30.07 in 4.0 mi SSE 21.9 mph 28.8 mph 0.06 in Rain , Thunderstorm Heavy Rain
5:52 AM 57.0 °F 55.0 °F 93% 30.06 in 5.0 mi SE 16.1 mph 28.8 mph 0.09 in Rain , Thunderstorm Heavy Rain
6:04 AM 57.0 °F 55.0 °F 93% 30.09 in 2.5 mi SE 16.1 mph - 0.08 in Rain , Thunderstorm Heavy Thunderstorms and Rain
6:14 AM 57.0 °F 55.0 °F 93% 30.09 in 1.8 mi SE 15.0 mph - 0.23 in Rain , Thunderstorm Heavy Thunderstorms and Rain
6:46 AM 57.2 °F 55.4 °F 94% 30.08 in 2.0 mi East 9.2 mph - 0.94 in Rain , Thunderstorm Heavy Thunderstorms and Rain
6:52 AM 57.0 °F 55.0 °F 93% 30.08 in 2.5 mi East 9.2 mph - 1.01 in Rain , Thunderstorm Heavy Thunderstorms and Rain
7:00 AM 57.0 °F 55.0 °F 93% 30.08 in 2.5 mi NE 8.1 mph - 0.10 in Rain , Thunderstorm Heavy Rain
7:13 AM 57.0 °F 55.0 °F 93% 30.12 in 2.5 mi NNE 10.4 mph - 0.24 in Rain , Thunderstorm Heavy Rain
7:21 AM 57.0 °F 55.0 °F 93% 30.10 in 2.0 mi East 9.2 mph - 0.37 in Rain Heavy Rain
7:23 AM 57.0 °F 55.0 °F 93% 30.11 in 2.5 mi Variable 5.8 mph - 0.39 in Rain , Thunderstorm Heavy Rain
7:37 AM 55.9 °F 55.0 °F 97% 30.09 in 1.5 mi ENE 12.7 mph - 0.67 in Rain Heavy Rain
7:42 AM 55.9 °F 55.0 °F 97% 30.10 in 3.0 mi ENE 12.7 mph - 0.68 in Rain Light Rain
7:52 AM 57.0 °F 55.0 °F 93% 30.09 in 7.0 mi ESE 13.8 mph - 0.69 in Rain Light Rain
8:04 AM 57.0 °F 55.0 °F 93% 30.09 in 9.0 mi SE 16.1 mph - 0.02 in Rain Rain
8:11 AM 57.0 °F 55.0 °F 93% 30.09 in 10.0 mi SSE 18.4 mph 24.2 mph 0.03 in Rain Light Rain
8:29 AM 57.9 °F 55.0 °F 90% 30.09 in 9.0 mi SSE 12.7 mph - 0.08 in Rain Light Rain
8:52 AM 57.9 °F 55.0 °F 90% 30.09 in 8.0 mi SSE 13.8 mph - 0.11 in Rain Light Rain
9:15 AM 57.9 °F 55.9 °F 93% 30.09 in 10.0 mi SSE 15.0 mph - 0.00 in   Overcast
9:29 AM 57.9 °F 55.9 °F 93% 30.10 in 10.0 mi SSE 17.3 mph - 0.00 in   Overcast
9:36 AM 57.9 °F 55.9 °F 93% 30.10 in 10.0 mi SE 17.3 mph - 0.00 in   Overcast
9:52 AM 57.9 °F 55.9 °F 93% 30.09 in 9.0 mi SE 16.1 mph - 0.00 in   Overcast
10:06 AM 57.9 °F 55.9 °F 93% 30.10 in 9.0 mi SSE 17.3 mph - N/A   Overcast
10:29 AM 59.0 °F 55.9 °F 90% 30.09 in 8.0 mi SE 11.5 mph - 0.00 in Rain Light Rain
10:52 AM 59.0 °F 57.0 °F 93% 30.10 in 2.5 mi SE 11.5 mph - 0.05 in Rain Rain
11:00 AM 59.0 °F 57.0 °F 93% 30.11 in 3.0 mi SSE 11.5 mph - 0.01 in Rain Light Rain
11:52 AM 60.1 °F 57.9 °F 93% 30.09 in 5.0 mi SSE 12.7 mph - 0.03 in Rain Light Rain
12:37 PM 60.1 °F 59.0 °F 96% 30.07 in 6.0 mi SSE 12.7 mph - 0.02 in Rain Light Rain
12:48 PM 60.8 °F 59.0 °F 94% 30.07 in 2.5 mi SSE 13.8 mph - 0.04 in Rain Heavy Rain
12:52 PM 60.1 °F 59.0 °F 96% 30.06 in 2.0 mi SSE 16.1 mph - 0.06 in Rain Heavy Rain
1:06 PM 61.0 °F 59.0 °F 93% 30.06 in 5.0 mi South 12.7 mph - 0.02 in Rain Light Rain
1:26 PM 62.1 °F 60.1 °F 93% 30.05 in 6.0 mi SSE 12.7 mph - 0.03 in   Overcast
1:52 PM 62.1 °F 60.1 °F 93% 30.02 in 7.0 mi SSE 12.7 mph - 0.03 in Rain Light Rain
2:52 PM 62.1 °F 60.1 °F 93% 30.00 in 7.0 mi SSE 12.7 mph - 0.03 in   Overcast
3:52 PM 63.0 °F 61.0 °F 93% 29.99 in 7.0 mi SSE 11.5 mph - 0.00 in   Overcast
4:52 PM 64.0 °F 62.1 °F 93% 29.99 in 8.0 mi SSE 11.5 mph - N/A   Overcast
5:52 PM 64.0 °F 62.1 °F 93% 29.99 in 7.0 mi SSE 11.5 mph - N/A   Overcast
6:19 PM 64.0 °F 62.1 °F 93% 30.01 in 8.0 mi SSE 13.8 mph - N/A   Scattered Clouds
6:52 PM 64.0 °F 62.1 °F 93% 30.00 in 9.0 mi South 12.7 mph - N/A   Overcast
7:42 PM 64.0 °F 63.0 °F 96% 30.03 in 9.0 mi SSE 13.8 mph - N/A   Overcast
7:52 PM 64.0 °F 63.0 °F 96% 30.02 in 9.0 mi SSE 12.7 mph - N/A   Overcast
8:52 PM 64.9 °F 63.0 °F 93% 30.03 in 10.0 mi SSE 10.4 mph - N/A   Mostly Cloudy
9:52 PM 64.9 °F 63.0 °F 93% 30.03 in 10.0 mi South 11.5 mph - N/A   Overcast
10:52 PM 64.9 °F 63.0 °F 93% 30.03 in 10.0 mi SSE 10.4 mph - N/A   Overcast
11:52 PM 64.9 °F 63.0 °F 93% 30.03 in 10.0 mi SSE 10.4 mph - N/A   Overcast